Regional Weather Roundup
Issued by NWS

Home | Current Version | Previous Version | Text Only | Print | Product List | Glossary Off
Versions: 1 2 3 4 5 6 7 8 9 10 11 12 13 14 15 16 17 18 19 20 21 22 23 24 25 26 27 28 29 30 31 32 33 34 35 36 37 38 39 40 41 42 43 44 45 46 47 48 49 50

000
ASUS43 KLOT 230200
RWRIL

ILLINOIS REGIONAL WEATHER ROUNDUP
NATIONAL WEATHER SERVICE CHICAGO/ROMEOVILLE IL
900 PM CDT FRI AUG 22 2014

NOTE: "FAIR" INDICATES FEW OR NO CLOUDS BELOW 12,000 FEET WITH NO
SIGNIFICANT WEATHER AND/OR OBSTRUCTIONS TO VISIBILITY.

* THESE STATIONS ARE NOT UNDER NWS QUALITY CONTROL. THEY ALSO MAY NOT
  REPORT WEATHER SUCH AS PRECIPITATION OR FOG.

ILZ001-002-007-009-015-016-024-230300-
NORTHWEST ILLINOIS

CITY           SKY/WX    TMP DP  RH WIND       PRES   REMARKS
MOLINE         CLEAR     79  74  84 CALM      29.96R HX  82
STERLING*      PTCLDY    79  75  89 CALM      29.97R HX  82
$$

ILZ003-004-008-010-011-017-018-230300-
NORTH CENTRAL ILLINOIS

CITY           SKY/WX    TMP DP  RH WIND       PRES   REMARKS
ROCKFORD       MOCLDY    77  73  87 SW5       29.98R
$$

ILZ005-006-012>014-019>023-230300-
NORTHEAST ILLINOIS

CITY           SKY/WX    TMP DP  RH WIND       PRES   REMARKS
CHICAGO-OHARE  MOCLDY    80  71  74 SW3       29.96R HX  84
CHICAGO-MIDWAY MOCLDY    82  74  76 SW3       29.96R HX  88
AURORA         PTCLDY    77  72  84 S6        29.97R
WAUKEGAN       CLOUDY    73  72  96 NE3       29.97R FOG
DUPAGE AIRPORT PTCLDY    76  73  91 CALM      29.97R
WHEELING       MOCLDY    78  73  84 CALM      29.98R HX  81
NORTHERLY ISL    N/A     75  72  90 CALM        N/A
$$

LMZ740>746-230300-
SOUTHERN LAKE MICHIGAN

STATION/POSITION SKY/WX   TEMP    WIND        PRES    VSBY  WAVE
                          AIR SEA DIR/SP/G                  HT/PER
                          (F)     (DEG/KT/KT) (MB)    (MI)  (FT/S)
SOUTHERN BUOY              71 71   70/  2/  2 1014.8R         0
WAUKEGAN HARBOR            73      50/  4/  5   N/A
HARRISON CRIB              74      80/  7/  8   N/A
BURNHAM HARBOR             75      CALM  /  3   N/A
CALUMET HARBOR             80     210/  3/  4 1013.3R
MICHIGAN CITY              79     190/  1/  2   N/A
MICHIGAN CITY 6N           76 75  120/  2/  2   N/A           0
ST. JOSEPH                 74 72   50/  4/  6   N/A           0
$$

ILZ025>027-034>036-040-047-049-050-058-095>099-230300-
WEST-CENTRAL ILLINOIS

CITY           SKY/WX    TMP DP  RH WIND       PRES   REMARKS
QUINCY         CLEAR     80  77  90 NE5       29.94R HX  87
MACOMB*        MOCLDY    79  77  94 N5        29.97R HX  83
$$

ILZ028>032-037-038-041>044-048-051>054-059>061-230300-
CENTRAL ILLINOIS

CITY           SKY/WX    TMP DP  RH WIND       PRES   REMARKS
DECATUR        PTCLDY    79  76  90 E5        29.97R HX  83
PEORIA         PTCLDY    81  74  79 CALM      29.96R HX  86
SPRINGFIELD    PTCLDY    80  77  90 CALM      29.96R HX  87
TAYLORVILLE    NOT AVBL
$$

ILZ033-039-045-046-055>057-062-063-230300-
EAST-CENTRAL ILLINOIS

CITY           SKY/WX    TMP DP  RH WIND       PRES   REMARKS
CHAMPAIGN      PTCLDY    76  74  93 E5        29.98R
MATTOON        CLOUDY    79  77  94 CALM      29.97R HX  83
$$

ILZ079-100>102-230300-
SOUTHWEST ILLINOIS

CITY           SKY/WX    TMP DP  RH WIND       PRES   REMARKS
ALTON          MOCLDY    81  81 100 E3        29.93S HX  91
BELLEVILLE     MOCLDY    82  81  96 N1        29.93R HX  94
CAHOKIA*       MOCLDY    82  79  90 E3        29.92R HX  92
$$

ILZ064>066-069>071-074>076-080>082-084>086-088>090-092>094-230300-
SOUTH-CENTRAL ILLINOIS

CITY           SKY/WX    TMP DP  RH WIND       PRES   REMARKS
CARBONDALE     CLOUDY    82  76  81 S5        29.95R HX  89
MT. VERNON     PTCLDY    79  73  83 CALM      29.96R HX  82
$$

ILZ067-068-072-073-078-083-087-091-230300-
SOUTHEAST ILLINOIS

CITY           SKY/WX    TMP DP  RH WIND       PRES   REMARKS
LAWRENCEVILLE  CLOUDY    80  78  94 CALM      29.98R FOG     HX  88
HARRISBURG*    MOCLDY    80  78  94 SE3       29.98R HX  86
$$

ABBREVIATIONS USED IN REMARKS
   TC - TEMPERATURE IN CELSIUS
  WCI - WIND CHILL INDEX
   HX - HEAT INDEX
  VSB - VISIBILITY
$$



USA.gov is the U.S. government's official web portal to all federal, state and local government web resources and services.